Flag for U.S.A. Weather past 2 weeks in Sandpoint, Idaho, U.S.A.

Now
75 °F

Sunny.


Feels Like: 77 °F
Forecast: 45 / 79 °F
Wind: 5 mph from East

Location: Sandpoint Airport

Current Time: May 22, 2015 at 12:40:06 PM

Latest Report: May 22, 2015 at 12:15 PM


Visibility: 10 mi

Pressure: 29.84 "Hg

Humidity: 31%

Dew point: 43 °F

Location of SandpointLocation

Historic Weather in Sandpoint — Graph

°F

Sandpoint temperature yesterday

Maximum temperature yesterday: 81 °F (at 3:55 PM)
Minimum temperature yesterday: 45 °F (at 2:35 AM)
Average temperature yesterday: 64 °F

Past Weeks' High & Low Weather Summary

 TemperatureHumidityPressure
High81 °F (May 21, 3:55 PM)100% (May 13, 1:55 PM)30.20 "Hg (May 13, 1:55 PM)
Low32 °F (May 9, 5:15 AM)16% (May 9, 2:15 PM)29.64 "Hg (May 15, 3:15 PM)
Average58 °F50%29.94 "Hg
* Reported May 7 11:15 AM — May 22 11:15 AM, Sandpoint, Weather by CustomWeather, © 2015

Note: Actual official high and low records may vary slightly from our data, if they occured in-between our weather recording intervals... More about our weather records

Advertising

Sandpoint weather history for previous 24 hours

 ConditionsComfort  
Time TempWeatherWind HumidityBarometerVisibility
11:15 AM
Fri, May 22
72 °FSunny.7 mph33%29.86 "Hg10 mi
10:55 AM72 °FSunny.7 mph36%29.86 "Hg10 mi
10:35 AM70 °FSunny.6 mph35%29.87 "Hg10 mi
10:15 AM70 °FSunny.5 mph35%29.87 "Hg10 mi
9:55 AM70 °FSunny.5 mph35%29.88 "Hg10 mi
9:35 AM70 °FSunny.6 mph33%29.88 "Hg10 mi
9:20 AM68 °FSunny.7 mph33%29.88 "Hg10 mi
8:55 AM66 °FSunny.6 mph40%29.88 "Hg10 mi
8:35 AM64 °FSunny.No wind43%29.89 "Hg10 mi
8:15 AM63 °FSunny.3 mph45%29.89 "Hg10 mi
7:55 AM61 °FSunny.5 mph48%29.89 "Hg10 mi
7:35 AM59 °FSunny.No wind51%29.89 "Hg10 mi
7:15 AM57 °FSunny.No wind55%29.89 "Hg10 mi
6:55 AM55 °FSunny.No wind59%29.89 "Hg10 mi
6:35 AM54 °FSunny.No wind67%29.89 "Hg10 mi
6:15 AM50 °FSunny.No wind82%29.89 "Hg10 mi
5:55 AM50 °FClear.No wind82%29.88 "Hg10 mi
5:35 AM46 °FClear.No wind87%29.88 "Hg10 mi
5:15 AM46 °FClear.No wind87%29.88 "Hg10 mi
4:55 AM46 °FClear.No wind87%29.87 "Hg10 mi
4:15 AM48 °FClear.No wind82%29.87 "Hg10 mi
3:55 AM48 °FClear.No wind82%29.87 "Hg10 mi
3:35 AM50 °FPassing clouds.No wind76%29.86 "Hg10 mi
3:15 AM52 °FPassing clouds.No wind72%29.86 "Hg10 mi
2:55 AM52 °FClear.No wind72%29.86 "Hg10 mi
2:15 AM52 °FClear.No wind67%29.86 "Hg10 mi
1:55 AM52 °FClear.No wind67%29.86 "Hg10 mi
1:35 AM52 °FClear.3 mph67%29.86 "Hg10 mi
1:15 AM54 °FClear.7 mph63%29.86 "Hg10 mi
12:55 AM55 °FClear.5 mph59%29.86 "Hg10 mi
12:40 AM55 °FClear.6 mph59%29.84 "Hg10 mi
12:15 AM52 °FPassing clouds.No wind72%29.82 "Hg10 mi
11:55 PM
Thu, May 21
52 °FPassing clouds.No wind67%29.83 "Hg10 mi
11:35 PM54 °FClear.No wind63%29.82 "Hg10 mi
11:15 PM50 °FClear.5 mph76%29.82 "Hg10 mi
10:55 PM52 °FClear.No wind72%29.81 "Hg10 mi
10:35 PM54 °FClear.3 mph67%29.81 "Hg10 mi
10:15 PM54 °FClear.No wind67%29.81 "Hg10 mi
9:55 PM55 °FClear.No wind59%29.80 "Hg10 mi
9:35 PM55 °FClear.3 mph63%29.80 "Hg10 mi
9:15 PM59 °FSunny.No wind51%29.79 "Hg10 mi
8:55 PM61 °FSunny.No wind48%29.78 "Hg10 mi
8:35 PM61 °FSunny.3 mph52%29.78 "Hg10 mi
8:15 PM63 °FSunny.No wind49%29.78 "Hg10 mi
7:50 PM66 °FSunny.No wind40%29.77 "Hg10 mi
7:35 PM68 °FSunny.No wind40%29.77 "Hg10 mi
7:15 PM72 °FSunny.No wind33%29.76 "Hg10 mi
6:55 PM77 °FSunny.No wind24%29.76 "Hg10 mi
6:40 PM79 °FSunny.No wind20%29.77 "Hg10 mi
6:20 PM79 °FSunny.No wind18%29.77 "Hg10 mi
5:50 PM79 °FSunny.5 mph20%29.78 "Hg10 mi
5:35 PM81 °FSunny.5 mph18%29.78 "Hg10 mi
5:15 PM81 °FSunny.No wind17%29.78 "Hg10 mi
4:55 PM81 °FSunny.No wind17%29.78 "Hg10 mi
4:35 PM81 °FSunny.No wind18%29.79 "Hg10 mi
4:20 PM81 °FSunny.No wind17%29.79 "Hg10 mi
3:55 PM81 °FSunny.6 mph18%29.80 "Hg10 mi
3:35 PM79 °FSunny.5 mph20%29.81 "Hg10 mi
3:15 PM79 °FSunny.5 mph21%29.81 "Hg10 mi
2:55 PM79 °FSunny.7 mph21%29.83 "Hg10 mi
2:15 PM79 °FSunny.5 mph21%29.84 "Hg10 mi
1:55 PM79 °FSunny.6 mph24%29.85 "Hg10 mi
1:35 PM77 °FSunny.7 mph26%29.85 "Hg10 mi
1:15 PM77 °FSunny.6 mph24%29.86 "Hg10 mi
12:55 PM75 °FSunny.3 mph25%29.87 "Hg10 mi
12:35 PM75 °FSunny.5 mph29%29.88 "Hg10 mi
12:15 PM75 °FSunny.5 mph29%29.88 "Hg10 mi
Weather by CustomWeather, © 2015

See weather overviewHow to use our weather pages